Jackpot

Texas Poker Multi Jackpot System

Kini Telah hadir Jackpot SUPER ROYAL FLUSH

Kini Telah hadir Jackpot 2000 (khusus table VIP keatas).

Ikutilah global jackpot yang tersedia di system kami, dengan system jackpot terbaru dan pertama di indonesia, anda dapat membeli jackpot dengan harga 100 rupiah saja dan menangkan hadiahnya hingga puluhan juta rupiah.

Jackpot bukanlah suatu keharusan untuk dibeli, namun kami memberikan suatu fitur tambahan untuk member tercinta dari www.ayo99.net.

Terdapat tiga pilihan harga jackpot yang bisa anda beli yaitu :100,500,1000 dan 2000(khusus table VIP Keatas) rupiah.

Hadiah dari Multi jackpot system www.ayo99.net

  1. full house x 10 harga jackpot yang anda beli.
      (contoh:anda membeli 1000 maka:1000 X10 = 10.000)
  2. four of kind x 250 harga jackpot yang anda beli
      (contoh:anda membeli 1000 maka:1000 X250 = 250.000)
  3. Straight flush x 1200
      (contoh:anda membeli 1000 maka:1000 X1200 = 1.200.000)
  4. Royal flush x 10000 harga jackpot yang anda beli
      (contoh:anda membeli 1000 maka:1000 X10000 = 10.000.000)
  5. SUPER ROYAL FLUSH x 30000 harga jackpot yang anda beli
      (contoh:anda membeli 1000 maka:1000 X30000 = 30.000.000)

Kondisi kartu

  1. full house adalah kondisi kartu dimana kartu anda dan kartu tengah dengan total 7 kartu bisa mendapatkan nilai 5 kartu dengan kombinasi 1 tris(three of kind) dan 1 pair, contoh 3 kartu 10 dan 2 kartu 5
  2. Four of kind adalah kondisi kartu dimana kartu anda dan kartu tengah dengan total 7 kartu bisa mendapatkan nilai 5 kartu dengan kombinasi 4 kartu yang sama jumlah dan 1 kartu apapun juga contoh anda mendapatkan 4 buah kartu angka 3 dan 1 kartu apapun.
  3. Staright flush adalah kondisi kartu dimana kartu anda dan kartu tengah dengan total 7 kartu bisa mendapatkan nilai 5 kartu dengan kombinasi seri / staright dengan kembang yang sama contoh : urutan kartu dari angka 5, 6, 7, 8 , 9 10 dengan kembang yg sama misalnya as hati
  4. Royal flush adalah kondisi kartu dimana kartu anda dan kartu tengah dengan total 7 kartu bisa mendapatkan nilai 5 kartu dengan kombinasi seri / staright dengan kembang yang sama tetapi kartu tersebut haruslah dimulai dari 10. contoh 10, Queen, Jack, King dan aces dengan kembang yang sama
  5. Super Royal flush adalah kondisi kartu dimana Kedua kartu anda digabung dengan 3 kartu pertama meja haruslah royal flush. contoh kartu anda 10,Queen kembang sama dan 3 kartu pertama meja adalah Jack, King dan aces dengan kembang yang sama

Demikian adalah penjelasan dari Multi Jackpot www.ayo99.net terima kasih dan selamat bermain salam hoki dari kami

Texas Poker Jackpot Winner

TOP SUPER ROYAL FLUSH
No.TanggalNamaPriceWin
121/01 05:03OKI_12Super Royal flush6,000,000
221/01 00:56PUCKEYSuper Royal flush6,000,000
320/01 23:37BUNGNGA999Super Royal flush6,000,000
420/01 18:09COROET87Super Royal flush3,000,000
520/01 17:49CUPANG011Super Royal flush15,000,000
TOP ROYAL FLUSH
No.TanggalNamaPriceWin
121/01 04:14KUNDRU186Royal flush5,000,000
221/01 03:44KUMAN77Royal flush500,000
321/01 03:42DLPNJUTARoyal flush5,000,000
421/01 03:37E8F1F6C2Royal flush2,000,000
521/01 03:37FGLD9GYX1DRoyal flush2,000,000
TOP STRAIGHT FLUSH
No.TanggalNamaPriceWin
121/01 05:33ABIMANYU41Straight Flush240,000
221/01 05:31LEGENDZONAStraight Flush120,000
321/01 05:30ZCOWJSJAFXStraight Flush240,000
421/01 05:30JOKY707Straight Flush240,000
521/01 05:28IYCWBFOVNWStraight Flush60,000
LATEST JACKPOT
No.TanggalNamaPriceWin
121/01 05:33AJOLAPPET8Full House1,000
221/01 05:33L4KS4D4Full House1,000
321/01 05:33UWHUSMLLBWFull House5,000
421/01 05:33ROLINGDOFull House10,000
521/01 05:33LALA_112Full House1,000
621/01 05:33AICAAIBONFour Of A Kind125,000
721/01 05:33VEJOMA68Full House10,000
821/01 05:33X3718URFIAFull House5,000
921/01 05:33M3N9ALIR66Full House10,000
1021/01 05:33ABIMANYU41Straight Flush240,000
1121/01 05:33GUALAGI88Full House2,000
1221/01 05:33LESLEY87Full House1,000
1321/01 05:33FICCAFull House5,000
1421/01 05:33LUNX1RY7NGFull House1,000
1521/01 05:33E6AD7FEDFull House1,000
1621/01 05:33JALUKRYLS1Full House2,000
1721/01 05:33EZABO99Full House5,000
1821/01 05:33NICHOLFull House1,000
1921/01 05:32QIU9999QIUFull House10,000
2021/01 05:32A77ARISFull House10,000
2121/01 05:32UMILD99999Full House1,000
2221/01 05:32RAMSEYSI62Full House2,000
2321/01 05:32T2XW4B6PA8Full House5,000
2421/01 05:32RAYANABILEFull House2,000
2521/01 05:32JAWINAR23Full House5,000
2621/01 05:32HIKMAAH17Full House2,000
2721/01 05:32JAMBOY01Full House5,000
2821/01 05:32HOKI44321Full House5,000
2921/01 05:32L3M4SFull House5,000
3021/01 05:32CIBAI770Full House10,000
3121/01 05:32PARD190Full House2,000
3221/01 05:32CARIUAN9Full House5,000
3321/01 05:32IYALAH08Full House5,000
3421/01 05:32ALEX4455Full House2,000
3521/01 05:32ANTON4321Full House2,000
3621/01 05:32MASIAK90Full House2,000
3721/01 05:32BION13Full House5,000
3821/01 05:32ARU111Four Of A Kind25,000
3921/01 05:32K1226381Full House2,000
4021/01 05:32KETERIKSFull House5,000
4121/01 05:32SAMARAS001Full House2,000
4221/01 05:32T5IHHZ93LVFull House10,000
4321/01 05:32JADOEK99Full House5,000
4421/01 05:32SEKALEM81Full House2,000
4521/01 05:32TONYO23Full House5,000
4621/01 05:32TOLOAYAM1Full House500
4721/01 05:32S4DIS90Full House2,000
4821/01 05:32D5PG8I8755Full House2,000
4921/01 05:32VELASCO97Full House5,000
5021/01 05:32BATUKAYA07Full House10,000

Domino Multi Jackpot System

Ikutilah global jackpot yang tersedia di system kami, dengan system jackpot terbaru dan pertama di indonesia, anda dapat membeli jackpot dengan harga 100 rupiah saja dan menangkan hadiahnya hingga puluhan juta rupiah.

Jackpot bukanlah suatu keharusan untuk dibeli, namun kami memberikan suatu fitur tambahan untuk member tercinta dari www.ayo99.net.

Terdapat tiga pilihan harga jackpot yang bisa anda beli yaitu :100,500 dan 1000 rupiah.

Hadiah dari Multi jackpot system www.ayo99.net

  1. Murni Kecil x 50 harga jackpot yang anda beli.
      (contoh:anda membeli 1000 maka:1000 X 50 = 50.000)
  2. Murni Besar x 50 harga jackpot yang anda beli
      (contoh:anda membeli 1000 maka:1000 X 50 = 50.000)
  3. BALAK x 100 harga jackpot yang anda beli
      (contoh:anda membeli 1000 maka:1000 X 100 = 100.000)
  4. ENAM DEWA x 6666 harga jackpot yang anda beli
      (contoh:anda membeli 1000 maka:1000 X 6666 = 6.666.000)

Demikian adalah penjelasan dari Multi Jackpot www.ayo99.net terima kasih dan selamat bermain salam hoki dari kami

Domino Jackpot Winner

TOP ENAM DEWA
No.TanggalNamaPriceWin
120/01 23:55CECER67murni enam3,333,000
220/01 22:48HARI210485murni enam3,333,000
320/01 16:39ACIL66murni enam6,666,000
420/01 14:08SANGENYAmurni enam3,333,000
520/01 12:17TONI028murni enam3,333,000
TOP BALAK
No.TanggalNamaPriceWin
121/01 05:31CIRO23balak100,000
221/01 05:29INKHE08balak100,000
321/01 05:13SPORTLIAbalak100,000
421/01 05:12CEKI1234balak100,000
521/01 05:11HITJAMANOWbalak100,000
LATEST JACKPOT
No.TanggalNamaPriceWin
121/01 05:32BUSTED15murni kecil50,000
221/01 05:32RULER99murni kecil5,000
321/01 05:31CIRO23balak100,000
421/01 05:30AADDAIAA2murni besar5,000
521/01 05:29INKHE08balak100,000
621/01 05:28TEMPEKTUO1murni besar50,000
721/01 05:28TOGE9393murni kecil5,000
821/01 05:27MENSENN18murni besar5,000
921/01 05:27ARIS49murni besar25,000
1021/01 05:26C701877Emurni kecil25,000
1121/01 05:25JNG99murni kecil50,000
1221/01 05:25AULI488murni besar5,000
1321/01 05:23COMET86murni besar50,000
1421/01 05:22BIKUBIKUmurni besar50,000
1521/01 05:19KBJK03KSLTmurni besar5,000
1621/01 05:19YADAH88murni besar25,000
1721/01 05:17MAKANASmurni besar50,000
1821/01 05:17ASTA555murni besar50,000
1921/01 05:15BENGHAR93murni kecil25,000
2021/01 05:15JABLUNmurni kecil5,000
2121/01 05:15EZITmurni besar50,000
2221/01 05:15IN3NGB4L3murni besar5,000
2321/01 05:13PANU5lucky9950,000
2421/01 05:13SPORTLIAbalak100,000
2521/01 05:13EOSRURI07murni kecil25,000
2621/01 05:12CEKI1234balak100,000
2721/01 05:11JEMBOT9999murni kecil5,000
2821/01 05:11HITJAMANOWbalak100,000
2921/01 05:10VANTAKURZmurni besar25,000
3021/01 05:10EDO114balak100,000
3121/01 05:09SPORTLIAbalak100,000
3221/01 05:07SPORTLIAmurni besar50,000
3321/01 05:07GANASSS02murni kecil50,000
3421/01 05:07SY78890murni kecil5,000
3521/01 05:06MANCAAIIlucky9925,000
3621/01 05:05K3QNTADQ53murni kecil50,000
3721/01 05:05DAVEN99balak10,000
3821/01 05:05KUPU2Mmurni besar25,000
3921/01 05:04MENSENN18murni besar5,000
4021/01 05:00GARANmurni kecil25,000
4121/01 05:00CAROLL111murni kecil50,000
4221/01 04:59ARDI2078murni besar50,000
4321/01 04:58BJR7DENFGBmurni besar50,000
4421/01 04:57YADAH88murni kecil25,000
4521/01 04:57CALL89REIbalak100,000
4621/01 04:57WINJEKPOT3murni kecil25,000
4721/01 04:56TLJ18balak100,000
4821/01 04:54BOBOBO123murni besar25,000
4921/01 04:52GITOGLbalak100,000
5021/01 04:51JNG99balak100,000

Ceme Multi Jackpot System

Jackpot dilihat dari gabungan kartu pemain dengan kartu bandar. Bandar harus membeli jackpot sebanyak jumlah player yang sedang duduk. Sebagai contoh bila terdapat 3 pemain duduk bermain, dan bandar memutuskan untuk membeli jackpot Rp 1.000, maka pada periode tersebut bandar akan membeli jackpot sebanyak 3xRp1.000 = Rp3.000.

Jackpot bukanlah suatu keharusan untuk dibeli, namun kami memberikan suatu fitur tambahan untuk member tercinta dari www.ayo99.net.

Terdapat tiga pilihan harga jackpot yang bisa anda beli yaitu :100,500 dan 1000 rupiah.

Hadiah dari Multi jackpot system www.ayo99.net

  1. Murni Kecil x 50 harga jackpot yang anda beli.
      (contoh:anda membeli 1000 maka:1000 X 50 = 50.000)
  2. Murni Besar x 50 harga jackpot yang anda beli
      (contoh:anda membeli 1000 maka:1000 X 50 = 50.000)
  3. BALAK x 200 harga jackpot yang anda beli
      (contoh:anda membeli 1000 maka:1000 X 200 = 200.000)
  4. ENAM DEWA x 6666 harga jackpot yang anda beli
      (contoh:anda membeli 1000 maka:1000 X 6666 = 6.666.000)

Demikian adalah penjelasan dari Multi Jackpot www.ayo99.net terima kasih dan selamat bermain salam hoki dari kami

Ceme Jackpot Winner

TOP ENAM DEWA
No.TanggalNamaPriceWin
121/01 04:59UGIX1988murni enam3,333,000
221/01 04:59GAKNGOROSmurni enam6,666,000
321/01 04:52NIEZmurni enam666,600
421/01 04:46PANIROYmurni enam6,666,000
521/01 04:11ARP15GBmurni enam666,600
TOP BALAK
No.TanggalNamaPriceWin
121/01 05:31JOGAAL23balak20,000
221/01 05:31MASHADI93balak100,000
321/01 05:31CARERA27balak20,000
421/01 05:31EXSEL94balak20,000
521/01 05:31BOBOOOY06balak200,000
LATEST JACKPOT
No.TanggalNamaPriceWin
121/01 05:33MARITUN12murni kecil25,000
221/01 05:33TABIN88murni kecil25,000
321/01 05:32BUTOBUTOIJmurni kecil5,000
421/01 05:32B9ENTEN9murni kecil5,000
521/01 05:32GUNNUGRAHAmurni kecil25,000
621/01 05:32ASSKINGG21murni besar50,000
721/01 05:31T4D0004159murni kecil5,000
821/01 05:31JOGAAL23balak20,000
921/01 05:31MASHADI93balak100,000
1021/01 05:31BOBOOOY06murni kecil50,000
1121/01 05:31THRE303murni besar50,000
1221/01 05:31BUMZAMEERmurni kecil50,000
1321/01 05:31TOPAN56murni kecil50,000
1421/01 05:31DOKEN99murni besar5,000
1521/01 05:31CARERA27balak20,000
1621/01 05:31EXSEL94balak20,000
1721/01 05:31E1SPKBN6V3murni besar50,000
1821/01 05:31DHEDI212murni besar5,000
1921/01 05:31BOBOOOY06balak200,000
2021/01 05:31LINTAH66balak200,000
2121/01 05:30O9PARP8WTUbalak100,000
2221/01 05:30ANJELO378balak20,000
2321/01 05:30QNI9F66H88murni kecil50,000
2421/01 05:30DEVALO_22murni besar50,000
2521/01 05:30CUNSO33murni besar50,000
2621/01 05:30FSA2203murni besar50,000
2721/01 05:30O_ZIEmurni besar25,000
2821/01 05:30AAGBAEBA55murni besar50,000
2921/01 05:30VIPE12murni kecil50,000
3021/01 05:29KINOM69murni kecil25,000
3121/01 05:29ZX456murni kecil5,000
3221/01 05:29KINOM69murni kecil25,000
3321/01 05:29MGIC39balak200,000
3421/01 05:29HNPH2balak200,000
3521/01 05:29AC02A644murni kecil25,000
3621/01 05:29GROGOTCLUBmurni besar50,000
3721/01 05:28DPTTSANAKHIBATmurni kecil5,000
3821/01 05:28C937DC10murni kecil5,000
3921/01 05:28KAPEPET88murni kecil5,000
4021/01 05:28ENVYU9V5SWmurni besar50,000
4121/01 05:28DENNYS00murni besar5,000
4221/01 05:28LAPAY123murni besar50,000
4321/01 05:28SHDGDB_25balak100,000
4421/01 05:27SHAKA34murni kecil50,000
4521/01 05:27SS2EJC244Imurni kecil50,000
4621/01 05:27BOYY8585murni kecil50,000
4721/01 05:27MGIC39murni kecil50,000
4821/01 05:26RAHMADZLDmurni besar25,000
4921/01 05:26L6YHM72TM4murni besar50,000
5021/01 05:26JUWONO12murni kecil50,000